NK331 KSLC-KDEN

Flight info

Callsign NK331
Flight time N/A
Altitude 37000
Route RUGGD3 PERTY KAMPR LONGZ3
Aircraft A20N/M-SDE2E3FGHIRWXY/LB1

Departure

Time 2026-05-07 04:27
Airport Salt Lake City International Airport (KSLC)

Arrival

Time N/A
Airport Denver International Airport (KDEN)
Time Latitude Longitude Altitude Speed Heading
2026-05-07 04:11 40.78737 -111.97989 4236 ft 0 kts 180°
2026-05-07 04:18 40.78735 -111.97987 4236 ft 1 kts 154°
2026-05-07 04:19 40.78735 -111.97979 4236 ft 2 kts 90°
2026-05-07 04:19 40.78740 -111.97940 4236 ft 7 kts 83°
2026-05-07 04:19 40.78747 -111.97850 4237 ft 13 kts 82°
2026-05-07 04:19 40.78770 -111.97713 4235 ft 17 kts 53°
2026-05-07 04:20 40.78895 -111.97698 4237 ft 20 kts 348°
2026-05-07 04:20 40.79038 -111.97715 4238 ft 24 kts 356°
2026-05-07 04:20 40.79229 -111.97736 4232 ft 31 kts 355°
2026-05-07 04:21 40.79690 -111.97787 4230 ft 33 kts 355°
2026-05-07 04:21 40.79907 -111.97815 4234 ft 30 kts 355°
2026-05-07 04:21 40.80105 -111.97837 4238 ft 27 kts 356°
2026-05-07 04:21 40.80289 -111.97858 4241 ft 26 kts 355°
2026-05-07 04:22 40.80468 -111.97878 4237 ft 26 kts 354°
2026-05-07 04:22 40.80523 -111.97886 4236 ft 3 kts 354°
2026-05-07 04:22 40.80548 -111.97889 4236 ft 4 kts 354°
2026-05-07 04:22 40.80573 -111.97892 4236 ft 3 kts 354°
2026-05-07 04:23 40.80596 -111.97895 4236 ft 3 kts 354°
2026-05-07 04:23 40.80615 -111.97897 4236 ft 3 kts 354°
2026-05-07 04:23 40.80656 -111.97903 4236 ft 9 kts 355°
2026-05-07 04:23 40.80718 -111.97890 4234 ft 10 kts 32°
2026-05-07 04:24 40.80728 -111.97878 4234 ft 0 kts 47°
2026-05-07 04:24 40.80730 -111.97876 4232 ft 2 kts 48°
2026-05-07 04:24 40.80744 -111.97818 4233 ft 8 kts 87°
2026-05-07 04:24 40.80732 -111.97739 4232 ft 9 kts 120°
2026-05-07 04:25 40.80687 -111.97689 4232 ft 8 kts 160°
2026-05-07 04:25 40.80669 -111.97685 4232 ft 0 kts 173°
2026-05-07 04:26 40.80591 -111.97674 4235 ft 42 kts 174°
2026-05-07 04:27 40.80036 -111.97610 4238 ft 119 kts 174°
2026-05-07 04:27 40.78962 -111.97485 4286 ft 181 kts 174°
2026-05-07 04:27 40.77626 -111.97352 4663 ft 205 kts 176°
2026-05-07 04:27 40.76149 -111.97394 5367 ft 215 kts 189°
2026-05-07 04:28 40.74710 -111.97994 6202 ft 223 kts 212°
2026-05-07 04:28 40.73675 -111.99535 6840 ft 233 kts 244°
2026-05-07 04:28 40.73385 -112.00939 7059 ft 250 kts 266°
2026-05-07 04:28 40.73726 -112.03240 7609 ft 264 kts 298°
2026-05-07 04:29 40.74919 -112.05027 8639 ft 260 kts 328°
2026-05-07 04:29 40.76594 -112.05882 9765 ft 259 kts 347°
2026-05-07 04:29 40.78374 -112.06304 10724 ft 261 kts 351°
2026-05-07 04:29 40.80185 -112.06671 11609 ft 265 kts 351°
2026-05-07 04:30 40.82013 -112.07044 12515 ft 267 kts 351°
2026-05-07 04:30 40.83863 -112.07433 13327 ft 275 kts 351°
2026-05-07 04:30 40.85845 -112.07661 13757 ft 297 kts
2026-05-07 04:30 40.87945 -112.07138 14137 ft 321 kts 20°
2026-05-07 04:31 40.89837 -112.05443 14650 ft 341 kts 45°
2026-05-07 04:31 40.91014 -112.02657 15323 ft 358 kts 71°
2026-05-07 04:31 40.91301 -111.99332 16067 ft 371 kts 86°
2026-05-07 04:31 40.91254 -111.95896 16825 ft 376 kts 89°
2026-05-07 04:32 40.91178 -111.92419 17601 ft 381 kts 89°
2026-05-07 04:32 40.91123 -111.88899 18357 ft 385 kts 88°
2026-05-07 04:32 40.91088 -111.85340 19019 ft 389 kts 88°
2026-05-07 04:32 40.91067 -111.81741 19678 ft 393 kts 87°
2026-05-07 04:33 40.91051 -111.78108 20301 ft 398 kts 87°
2026-05-07 04:33 40.91038 -111.74437 20954 ft 401 kts 86°
2026-05-07 04:33 40.91025 -111.70728 21599 ft 405 kts 86°
2026-05-07 04:33 40.91014 -111.66986 22226 ft 409 kts 86°
2026-05-07 04:34 40.91001 -111.63207 22816 ft 414 kts 86°
2026-05-07 04:34 40.90987 -111.59381 23420 ft 418 kts 86°
2026-05-07 04:34 40.90971 -111.55516 23967 ft 422 kts 86°
2026-05-07 04:34 40.90953 -111.51617 24503 ft 425 kts 86°